MTCUBE 2 (ROBUSTA 1F) (53109 NORAD) Tracking and Keplerian Element Data

This shows tracking and keplerian element data for the satellite.

Feedback or suggestion? Click here.




ElementValue
Catalog53109
NameMTCUBE 2 (ROBUSTA 1F)
Epoch Orbit437
Epoch Day264.40991409
Epoch Year2022
RAAN52.8836
Inclination70.1359
Eccentricity0.0009359
Argument of Perigee229.7465
Mean Anonmoly130.2377
Mean Motion6.42583951
Decay Rate-3E-08
L11 53109U 22080E 22264.40991409 -.00000003 00000+0 00000+0 0 9994
L22 53109 70.1359 52.8836 0009359 229.7465 130.2377 6.42583951 4378

Live tracking and technical data element details for MTCUBE 2 (ROBUSTA 1F) (NORAD 53109). MTCUBE 2 (ROBUSTA 1F) can be tracked NOW for your location showing map with azimuth and elevation plus other details from your city location.

Track the satellite on the map from your city or location and see movement details for azimuth, elevation, latitude, longitude, range, height, and movement on the map or in text.







IsCatalogInMostPopularTable: catalog: 53109, numindb: 9
Update: records affected: 1



GetName: 53109 MTCUBE 2 (ROBUSTA 1F)

Hit Count: updated at: Wed, 28 Sep 2022 22:23:09 GMT